When you browse on this site, cookies collect data to enhance your experience and personalize the content and advertising you see.
Visit our Privacy Policy to learn more. By continuing to use the site, you agree to this use of cookies and data.
  • In Austria
  • List of Countries
  • For 7 days
  • Water Temperature
  • Weather Map
  • News
  • Weather Widgets
  • user-avatar
    Login

    Hourly Weather Tepatepec

    Today, 15 November, Friday

    Time Temperature Precipitation Wind Pressure Humidity
    00:00 +13°C° 0 mm 2 mps 603 mmHg 89%
    01:00 +13°C° 0 mm 1 mps 603 mmHg 89%
    02:00 +13°C° 0 mm 1 mps 603 mmHg 90%
    03:00 +13°C° 0 mm 1 mps 603 mmHg 90%
    04:00 +13°C° 0 mm 1 mps 603 mmHg 89%
    05:00 +13°C° 0 mm 2 mps 603 mmHg 89%
    06:00 +13°C° 0 mm 2 mps 604 mmHg 88%
    07:00 +13°C° 0 mm 2 mps 604 mmHg 88%
    08:00 +13°C° 0 mm 2 mps 605 mmHg 88%
    09:00 +14°C° 0 mm 2 mps 605 mmHg 84%
    10:00 +14°C° 0 mm 2 mps 604 mmHg 81%
    11:00 +14°C° 0 mm 3 mps 604 mmHg 78%
    12:00 +14°C° 0 mm 3 mps 604 mmHg 77%
    13:00 +14°C° 0 mm 3 mps 603 mmHg 76%
    14:00 +14°C° 0 mm 3 mps 602 mmHg 75%
    15:00 +13°C° 0 mm 3 mps 602 mmHg 77%
    16:00 +13°C° 0 mm 3 mps 602 mmHg 80%
    17:00 +13°C° 0 mm 2 mps 602 mmHg 82%
    18:00 +12°C° 0 mm 2 mps 602 mmHg 84%
    19:00 +12°C° 0 mm 2 mps 603 mmHg 85%
    20:00 +12°C° 0 mm 2 mps 603 mmHg 86%
    21:00 +12°C° 0 mm 1 mps 603 mmHg 86%
    22:00 +12°C° 0 mm 1 mps 603 mmHg 86%
    23:00 +12°C° 0 mm 1 mps 603 mmHg 86%

    Tomorrow, 16 November, Saturday

    Time Temperature Precipitation Wind Pressure Humidity
    00:00 +12°C° 0 mm 1 mps 602 mmHg 86%
    01:00 +12°C° 0 mm 1 mps 602 mmHg 86%
    02:00 +12°C° 0 mm 1 mps 602 mmHg 86%
    03:00 +11°C° 0 mm 0 mps 601 mmHg 86%
    04:00 +11°C° 0 mm 0 mps 601 mmHg 87%
    05:00 +11°C° 0 mm 0 mps 601 mmHg 88%
    06:00 +11°C° 0 mm 0 mps 602 mmHg 84%
    07:00 +12°C° 0 mm 0 mps 603 mmHg 80%
    08:00 +13°C° 0 mm 0 mps 603 mmHg 77%
    09:00 +15°C° 0 mm 0 mps 603 mmHg 71%
    10:00 +18°C° 0 mm 1 mps 604 mmHg 66%
    11:00 +20°C° 0 mm 1 mps 604 mmHg 61%
    12:00 +19°C° 0 mm 2 mps 603 mmHg 59%
    13:00 +20°C° 0 mm 2 mps 603 mmHg 58%
    14:00 +20°C° 0 mm 3 mps 602 mmHg 56%
    15:00 +19°C° 0 mm 3 mps 602 mmHg 62%
    16:00 +18°C° 0 mm 2 mps 602 mmHg 68%
    17:00 +17°C° 0 mm 2 mps 602 mmHg 74%
    18:00 +16°C° 0 mm 2 mps 602 mmHg 79%
    19:00 +15°C° 0 mm 1 mps 602 mmHg 83%
    20:00 +14°C° 0 mm 1 mps 602 mmHg 87%
    21:00 +14°C° 0 mm 1 mps 601 mmHg 87%
    22:00 +14°C° 0 mm 1 mps 601 mmHg 87%
    23:00 +13°C° 0 mm 0 mps 601 mmHg 87%

    Day after tomorrow, 17 November, Sunday

    Time Temperature Precipitation Wind Pressure Humidity
    00:00 +13°C° 0 mm 0 mps 601 mmHg 89%
    01:00 +12°C° 0 mm 0 mps 600 mmHg 90%
    02:00 +12°C° 0 mm 0 mps 600 mmHg 92%
    03:00 +12°C° 0 mm 0 mps 600 mmHg 92%
    04:00 +12°C° 0 mm 0 mps 600 mmHg 93%
    05:00 +11°C° 0 mm 0 mps 600 mmHg 93%
    06:00 +13°C° 0 mm 0 mps 600 mmHg 86%
    07:00 +14°C° 0 mm 0 mps 601 mmHg 79%
    08:00 +16°C° 0 mm 0 mps 602 mmHg 72%
    09:00 +19°C° 0 mm 1 mps 602 mmHg 65%
    10:00 +21°C° 0 mm 1 mps 602 mmHg 58%
    11:00 +21°C° 0 mm 2 mps 603 mmHg 51%
    12:00 +23°C° 0 mm 2 mps 602 mmHg 49%
    13:00 +23°C° 0 mm 2 mps 602 mmHg 48%
    14:00 +23°C° 0 mm 2 mps 601 mmHg 46%
    15:00 +21°C° 0.1 mm 2 mps 601 mmHg 53%
    16:00 +20°C° 0.1 mm 2 mps 601 mmHg 60%
    17:00 +19°C° 0.1 mm 2 mps 601 mmHg 67%
    18:00 +18°C° 0.1 mm 2 mps 601 mmHg 71%
    19:00 +17°C° 0.1 mm 2 mps 601 mmHg 75%
    20:00 +18°C° 0.1 mm 1 mps 602 mmHg 79%
    21:00 +18°C° 0 mm 1 mps 601 mmHg 80%
    22:00 +16°C° 0 mm 1 mps 601 mmHg 81%
    23:00 +16°C° 0 mm 1 mps 601 mmHg 82%

    18 November, Monday

    Time Temperature Precipitation Wind Pressure Humidity
    00:00 +15°C° 0 mm 0 mps 601 mmHg 83%
    01:00 +14°C° 0 mm 0 mps 600 mmHg 84%
    02:00 +14°C° 0 mm 0 mps 600 mmHg 86%
    03:00 +14°C° 0 mm 0 mps 600 mmHg 85%
    04:00 +14°C° 0 mm 0 mps 600 mmHg 84%
    05:00 +14°C° 0 mm 0 mps 600 mmHg 83%
    06:00 +15°C° 0 mm 0 mps 601 mmHg 77%
    07:00 +16°C° 0 mm 0 mps 601 mmHg 72%
    08:00 +17°C° 0 mm 0 mps 602 mmHg 66%
    09:00 +18°C° 0 mm 0 mps 602 mmHg 60%
    10:00 +21°C° 0 mm 1 mps 602 mmHg 54%
    11:00 +23°C° 0 mm 1 mps 602 mmHg 48%
    12:00 +23°C° 0 mm 1 mps 602 mmHg 47%
    13:00 +23°C° 0 mm 2 mps 601 mmHg 46%
    14:00 +24°C° 0 mm 2 mps 601 mmHg 45%
    15:00 +22°C° 0.2 mm 3 mps 601 mmHg 53%
    16:00 +20°C° 0.2 mm 3 mps 601 mmHg 62%
    17:00 +19°C° 0.2 mm 3 mps 600 mmHg 70%
    18:00 +18°C° 0.1 mm 3 mps 600 mmHg 76%
    19:00 +17°C° 0.1 mm 2 mps 601 mmHg 82%
    20:00 +16°C° 0.1 mm 2 mps 601 mmHg 88%
    21:00 +16°C° 0.1 mm 1 mps 601 mmHg 87%
    22:00 +16°C° 0.1 mm 1 mps 601 mmHg 87%
    23:00 +16°C° 0.1 mm 1 mps 601 mmHg 86%

    19 November, Tuesday

    Time Temperature Precipitation Wind Pressure Humidity
    00:00 +16°C° 0.1 mm 1 mps 600 mmHg 85%
    01:00 +15°C° 0.1 mm 0 mps 600 mmHg 85%
    02:00 +15°C° 0.1 mm 0 mps 600 mmHg 84%
    03:00 +15°C° 0.1 mm 0 mps 600 mmHg 84%
    04:00 +15°C° 0.1 mm 0 mps 600 mmHg 84%
    05:00 +15°C° 0.1 mm 0 mps 601 mmHg 84%
    06:00 +15°C° 0 mm 0 mps 601 mmHg 81%
    07:00 +18°C° 0 mm 1 mps 602 mmHg 79%
    08:00 +18°C° 0 mm 1 mps 602 mmHg 76%
    09:00 +19°C° 0 mm 1 mps 602 mmHg 71%
    10:00 +19°C° 0 mm 2 mps 602 mmHg 67%
    11:00 +21°C° 0 mm 2 mps 602 mmHg 62%
    12:00 +21°C° 0.2 mm 3 mps 602 mmHg 62%
    13:00 +21°C° 0.2 mm 3 mps 601 mmHg 62%
    14:00 +21°C° 0.2 mm 4 mps 601 mmHg 62%
    15:00 +20°C° 0.3 mm 3 mps 601 mmHg 67%
    16:00 +18°C° 0.3 mm 3 mps 600 mmHg 73%
    17:00 +17°C° 0.3 mm 2 mps 600 mmHg 78%
    18:00 +17°C° 0 mm 2 mps 600 mmHg 80%
    19:00 +16°C° 0 mm 1 mps 601 mmHg 82%
    20:00 +16°C° 0 mm 1 mps 601 mmHg 85%
    21:00 +14°C° 0 mm 0 mps 601 mmHg 86%
    22:00 +14°C° 0 mm 0 mps 601 mmHg 88%
    23:00 +14°C° 0 mm 0 mps 600 mmHg 89%

    20 November, Wednesday

    Time Temperature Precipitation Wind Pressure Humidity
    00:00 +14°C° 0 mm 0 mps 600 mmHg 90%
    01:00 +13°C° 0 mm 0 mps 600 mmHg 90%
    02:00 +13°C° 0 mm 0 mps 600 mmHg 90%
    03:00 +13°C° 0 mm 0 mps 600 mmHg 91%
    04:00 +13°C° 0 mm 0 mps 600 mmHg 91%
    05:00 +13°C° 0 mm 0 mps 600 mmHg 91%
    06:00 +14°C° 0 mm 0 mps 600 mmHg 84%
    07:00 +18°C° 0 mm 1 mps 601 mmHg 77%
    08:00 +19°C° 0 mm 1 mps 602 mmHg 70%
    09:00 +21°C° 0 mm 1 mps 602 mmHg 64%
    10:00 +22°C° 0 mm 1 mps 602 mmHg 57%
    11:00 +23°C° 0 mm 1 mps 602 mmHg 51%
    12:00 +24°C° 0 mm 1 mps 602 mmHg 48%
    13:00 +25°C° 0 mm 2 mps 602 mmHg 45%
    14:00 +25°C° 0 mm 2 mps 602 mmHg 42%
    15:00 +24°C° 0 mm 2 mps 601 mmHg 48%
    16:00 +23°C° 0 mm 2 mps 601 mmHg 54%
    17:00 +20°C° 0 mm 2 mps 601 mmHg 61%
    18:00 +20°C° 0 mm 2 mps 601 mmHg 66%
    19:00 +20°C° 0 mm 1 mps 601 mmHg 71%
    20:00 +19°C° 0 mm 1 mps 601 mmHg 77%
    21:00 +19°C° 0 mm 1 mps 601 mmHg 78%
    22:00 +16°C° 0 mm 0 mps 601 mmHg 80%
    23:00 +16°C° 0 mm 0 mps 601 mmHg 81%
    Show more